Location: Broek
(53.2737°N, 5.9967°E)
Time: 21:38:16
(UTC+00:00)

Meteor 2-5 Rocket - Pass Details

Date: 10 October 2024
Orbit: 831 x 912 km, 81.2° (Epoch: 09 November)

Event Time Altitude Azimuth Distance (km) Brightness Sun altitude
Rises 18:41:21 0° 345° (NNW) 3,513 7.3 -17.3°
Reaches altitude 10° 18:43:50 10° 344° (NNW) 2,557 6.6 -17.7°
Maximum altitude 18:49:38 75° 261° (W) 903 3.9 -18.5°
Drops below altitude 10° 18:55:16 10° 176° (S) 2,484 6.0 -19.3°
Sets 18:57:39 0° 175° (S) 3,405 6.7 -19.7°
